EHI
15 26 40 51 61 69 71 70 64 56 50 46 42 39 37 33 24 13 7 6 4 3 3 4 4 3 1 0 0 0 0 0 0 0 0 0 0 0 0 0 0 0 0
19 28 42 53 61 69 72 69 63 56 49 45 41 37 34 30 21 11 7 5 4 3 3 3 4 3 1 0 0 0 0 0 0 0 0 0 0 0 0 0 0 0 0
25 30 43 54 61 68 71 67 61 54 48 44 40 34 31 26 17 9 6 4 3 3 3 3 3 2 1 0 0 0 0 0 0 0 0 0 0 0 0 0 0 0 0
27 30 41 53 59 65 67 64 58 51 47 44 39 33 28 22 14 8 5 4 3 4 4 3 3 1 0 0 0 0 0 0 0 0 0 0 0 0 0 0 0 0 0
26 27 36 49 56 60 63 62 56 49 45 42 38 31 25 18 11 7 6 5 4 5 4 3 2 1 0 0 0 0 0 0 0 0 0 0 0 0 0 0 0 0 0
25 25 32 43 51 55 59 59 55 48 43 40 36 30 23 16 9 7 6 5 5 5 4 3 1 0 0 0 0 0 0 0 0 0 0 0 0 0 0 0 0 0 0
24 24 29 38 44 49 53 54 52 46 41 37 34 29 22 14 9 8 7 6 5 4 3 2 1 0 0 0 0 0 0 0 0 0 0 0 0 0 0 0 0 0 0
20 22 26 32 39 43 45 47 47 43 38 35 31 26 19 12 10 10 9 7 5 3 3 2 1 0 0 0 0 0 0 0 0 0 0 0 0 0 0 0 0 0 0
16 18 21 26 32 36 36 37 38 36 33 30 26 21 14 10 9 9 8 7 4 3 3 2 1 0 0 0 0 0 0 0 0 0 0 0 0 0 0 0 0 0 0
13 14 16 18 22 25 26 28 27 25 24 22 19 13 8 6 6 6 6 5 4 3 3 1 0 0 0 0 0 0 0 0 0 0 0 0 0 0 0 0 0 0 0
9 10 11 13 15 17 19 21 20 17 16 15 12 7 4 3 3 4 3 3 3 3 2 1 0 0 0 0 0 0 0 0 0 0 0 0 0 0 0 0 0 0 0
5 7 8 9 11 12 14 15 15 14 13 12 8 5 4 3 3 3 1 1 2 2 1 0 0 0 0 0 0 0 0 0 0 0 0 0 0 0 0 0 0 0 0
3 4 5 6 6 8 9 10 11 12 12 10 6 4 4 3 3 3 1 0 1 1 0 0 0 0 0 0 0 0 0 0 0 0 0 0 0 0 0 0 0 0 0
1 2 3 2 2 4 6 7 8 8 8 6 4 4 4 3 3 3 2 1 0 0 0 0 0 0 0 0 0 0 0 0 0 0 0 0 0 0 0 0 0 0 0
0 1 1 1 1 2 3 4 5 4 3 2 2 3 3 2 2 3 2 1 0 0 0 0 0 0 0 0 0 0 0 0 0 0 0 0 0 0 0 0 0 0 0
1 0 0 0 0 1 1 2 2 2 1 1 1 2 2 1 1 1 1 0 0 0 0 0 0 0 0 0 0 0 0 0 0 0 0 0 0 0 0 0 0 0 0
2 1 0 1 0 0 0 0 1 1 0 0 1 2 2 1 0 0 0 0 0 0 0 0 0 0 0 0 0 0 0 0 0 0 0 0 0 0 0 0 0 0 0
2 1 0 0 0 0 0 0 0 0 0 0 0 1 1 1 0 0 0 0 0 0 0 0 0 0 0 0 0 0 0 0 0 0 0 0 0 0 0 0 0 0 0
1 0 0 0 0 0 0 0 0 0 0 0 0 0 0 0 0 0 0 0 0 0 0 0 0 0 0 0 0 0 0 0 0 0 0 0 0 0 0 0 0 0 0
0 0 0 0 0 0 0 0 0 0 0 0 0 0 0 0 0 0 0 0 0 0 0 0 0 0 0 0 0 0 0 0 0 0 0 0 0 0 0 0 0 0 0
0 0 0 0 0 0 0 0 0 0 0 0 0 0 0 0 0 0 0 0 0 0 0 0 0 0 0 0 0 0 0 0 0 0 0 0 0 0 0 0 0 0 0
0 0 0 0 0 0 0 0 0 0 0 0 0 0 0 0 0 0 0 0 0 0 0 0 0 0 0 0 0 0 0 0 0 0 0 0 0 0 0 0 0 0 0
0 0 0 0 0 0 0 0 0 0 0 0 0 0 0 0 0 0 0 0 0 0 0 0 0 0 0 0 0 0 0 0 0 0 0 0 0 0 0 0 0 0 0
0 0 0 0 0 0 0 0 0 0 0 0 0 0 0 0 0 0 0 0 0 0 0 0 0 0 0 0 0 0 0 0 0 0 0 0 0 0 0 0 0 0 0
0 0 0 0 0 0 0 0 0 0 0 0 0 0 0 0 0 0 0 0 0 0 0 0 0 0 0 0 0 0 0 0 0 0 0 0 0 0 0 0 0 0 0
0 0 0 0 0 0 0 0 0 0 0 0 0 0 0 0 0 0 0 0 0 0 0 0 0 0 0 0 0 0 0 0 0 0 0 0 0 0 0 0 0 0 0
Wind_Speed
7 12 19 20 20 20 20 20 19 19 18 18 18 18 18 18 18 19 18 17 16 16 16 16 16 17 17 17 17 17 17 16 16 15 14 14 14 15 15 15 14 10 16
10 14 19 19 20 19 19 19 19 18 17 17 18 18 18 18 18 18 18 17 17 16 16 16 16 17 17 17 17 17 16 16 16 15 13 11 12 14 15 14 13 10 15
12 14 16 18 19 19 19 19 18 18 18 17 18 18 18 18 18 18 17 17 17 16 16 16 16 17 16 16 16 16 15 15 14 13 11 6 8 14 15 14 14 15 15
11 11 14 17 18 18 19 19 19 19 18 17 17 17 17 18 18 18 17 17 17 16 16 16 16 16 16 15 15 14 14 14 13 11 6 4 6 13 14 14 14 14 14
8 8 11 16 18 18 18 19 19 19 18 17 17 17 17 18 18 18 17 16 16 16 16 16 16 15 14 13 13 12 12 12 12 9 5 5 4 12 13 13 13 13 13
6 6 9 14 17 18 18 18 19 19 19 18 17 17 17 18 18 17 17 16 15 16 16 16 16 14 13 12 11 11 12 13 10 5 4 4 4 11 13 12 12 12 12
4 4 7 12 15 17 17 18 18 18 18 18 17 17 17 18 17 17 16 16 16 16 16 16 15 14 12 11 11 11 12 12 7 5 4 3 5 11 12 11 11 11 11
5 4 5 10 12 14 16 17 17 18 18 18 17 17 17 17 17 17 17 17 17 17 16 15 14 13 11 10 10 10 10 10 8 6 4 3 7 10 11 10 10 10 10
4 4 4 5 7 10 12 13 15 16 16 17 16 16 15 15 16 17 17 17 17 16 16 15 14 13 11 9 8 8 9 9 5 3 4 2 7 10 10 9 9 9 8
3 3 3 4 5 5 7 11 12 14 15 15 15 14 14 14 15 16 15 15 16 15 15 14 13 12 10 8 7 8 9 7 4 3 2 4 8 9 9 8 8 7 7
3 3 3 4 5 4 5 8 9 12 13 13 12 14 13 9 10 10 12 14 15 15 14 14 13 11 8 6 6 7 6 3 4 3 2 6 9 9 8 8 7 6 6
4 5 3 5 6 5 5 5 5 6 8 8 8 9 7 7 7 9 12 13 14 14 13 13 12 10 6 3 3 4 2 4 3 3 4 8 9 9 8 7 7 6 5
5 5 5 5 6 5 4 4 3 3 5 6 8 8 7 6 6 6 6 7 9 10 7 8 7 4 3 3 2 2 3 3 3 3 4 9 9 9 9 8 7 7 6
6 6 5 5 6 6 5 5 5 4 4 5 7 9 7 6 6 6 5 6 6 5 5 5 4 4 4 4 3 3 3 3 3 3 4 9 9 10 9 9 8 7 7
7 7 6 6 6 6 5 5 6 6 5 6 7 8 9 7 8 7 6 6 6 5 6 5 5 5 4 4 4 4 4 5 5 4 3 8 9 9 9 9 9 8 7
7 7 6 6 6 7 5 5 5 6 5 6 7 8 10 8 8 8 7 7 6 6 6 6 6 5 4 4 4 5 5 5 5 5 4 5 8 9 9 10 9 9 8
7 7 7 7 6 7 6 6 5 5 5 5 6 8 9 9 9 8 7 7 7 6 6 5 5 4 4 4 4 4 4 4 5 5 5 4 4 7 9 10 10 9 8
6 7 7 7 7 7 6 6 4 5 6 5 5 7 9 10 10 9 7 7 7 6 6 6 5 4 4 4 3 3 3 4 5 5 4 4 4 3 6 8 8 8 8
6 6 7 6 7 7 6 5 5 5 5 5 4 6 8 9 10 9 8 7 7 6 5 6 5 4 4 4 4 3 3 3 4 4 5 5 5 4 4 5 7 7 7
4 5 6 6 6 6 5 4 4 4 4 5 5 6 9 9 10 8 7 8 8 6 6 6 6 4 4 4 3 2 2 3 3 4 5 4 4 5 5 4 4 4 6
3 4 6 6 5 5 5 5 5 5 5 5 5 7 9 9 10 8 7 8 8 7 8 7 5 5 3 3 2 0 1 2 3 4 4 4 4 5 5 5 4 3 3
3 4 5 5 5 5 6 5 4 4 4 4 4 6 8 9 10 8 9 8 8 7 8 7 5 4 3 4 4 3 1 2 2 3 3 4 4 3 4 5 4 4 3
1 2 3 5 4 4 5 4 3 3 3 3 4 5 7 8 8 8 9 8 8 8 8 8 8 7 5 4 4 5 4 4 2 2 3 3 4 3 3 3 4 4 4
0 2 3 4 5 4 4 5 5 4 4 4 3 4 6 7 7 7 8 8 8 7 8 8 7 6 7 6 4 3 3 3 3 2 2 2 3 4 4 4 4 4 4
2 2 2 2 3 3 3 4 5 4 3 2 2 4 5 5 6 6 7 7 7 6 7 7 7 6 6 6 4 3 3 2 2 3 3 3 2 3 4 4 4 3 4
3 3 2 2 2 3 4 4 4 4 4 4 2 3 4 4 4 6 6 6 6 6 7 8 8 8 7 6 4 4 4 4 4 3 4 3 3 3 3 3 4 4 3
Wind_Direction
170 166 171 167 163 158 153 150 147 144 142 139 137 134 132 131 131 132 132 131 130 126 121 118 115 112 110 109 108 104 100 96 92 89 86 86 89 89 86 82 79 74 79
161 166 168 167 164 160 156 152 149 147 146 144 142 140 138 136 135 135 134 133 132 128 124 121 119 115 114 112 110 107 103 99 96 92 85 84 89 91 90 88 86 84 82
152 164 167 167 164 162 158 155 152 151 150 149 148 146 144 142 140 138 137 136 134 130 127 125 123 119 117 115 113 111 107 104 102 98 91 85 92 94 93 91 88 86 84
148 160 167 168 165 163 160 158 156 155 155 154 153 152 149 147 144 142 141 139 135 132 130 127 124 122 121 119 116 112 109 108 103 98 84 78 92 97 95 92 90 88 85
142 156 165 169 167 165 163 161 160 159 159 158 157 156 154 151 149 146 144 140 138 134 132 130 127 126 124 121 115 111 108 108 104 93 81 77 83 99 97 94 92 90 88
139 150 163 169 170 167 165 164 163 163 162 162 160 159 157 155 152 149 144 141 138 136 135 134 132 131 127 121 114 111 109 109 101 90 85 85 89 103 102 99 96 94 92
131 150 160 164 170 169 168 167 167 166 166 165 163 162 160 158 155 151 146 144 142 140 140 138 137 135 131 124 116 112 112 116 110 102 97 98 109 110 108 105 102 98 95
133 148 162 166 165 169 171 172 170 170 169 168 167 166 163 160 156 153 150 148 148 146 144 143 142 140 137 130 121 115 116 122 119 116 110 115 123 117 113 110 108 105 102
124 133 154 164 162 168 169 172 174 173 171 170 169 167 163 160 157 155 154 153 152 150 147 147 147 147 145 136 126 118 119 122 123 130 128 129 132 126 121 118 115 112 109
129 133 156 161 159 165 169 171 172 172 171 170 167 163 161 159 158 156 155 155 154 152 150 150 152 153 150 142 131 122 123 121 126 130 133 149 143 137 132 129 126 122 118
159 158 169 161 160 160 169 171 171 169 169 167 165 160 157 158 157 156 157 156 154 154 154 156 158 158 152 146 136 126 124 131 141 144 155 159 154 149 145 142 140 137 133
197 179 178 172 165 163 174 163 170 174 168 165 164 163 160 157 157 156 157 157 155 155 158 161 163 160 151 143 138 129 135 149 157 166 177 173 166 162 160 158 158 156 155
202 194 180 184 173 170 172 168 168 171 169 166 164 163 158 154 153 152 155 156 155 155 157 160 158 163 163 164 161 156 164 167 175 183 186 182 178 176 175 176 177 177 177
205 197 188 190 184 177 175 177 173 173 176 174 171 166 161 160 161 160 162 160 161 161 161 162 166 176 180 185 181 178 182 183 183 182 193 189 189 189 188 188 189 190 192
210 198 193 189 187 178 176 182 181 179 181 180 175 173 169 168 170 167 166 166 167 165 168 169 175 183 192 198 200 196 195 190 185 185 193 195 196 198 200 200 200 202 205
209 196 187 189 191 177 179 188 179 182 181 181 179 177 172 170 171 170 169 171 172 173 174 177 183 187 196 196 203 201 192 184 187 189 194 200 203 202 205 208 211 214 218
205 193 186 187 189 183 181 188 179 180 175 183 184 179 176 174 172 171 173 176 178 176 174 177 183 183 188 194 202 197 188 192 191 194 195 197 202 208 211 215 219 221 224
201 191 189 190 190 184 181 179 178 181 177 181 187 181 177 176 175 171 174 180 179 174 175 178 180 181 188 190 196 197 192 195 198 200 198 199 199 206 213 217 220 221 225
200 191 183 182 184 182 178 176 177 180 182 178 185 187 180 176 177 173 176 177 175 175 178 182 182 180 184 191 197 201 200 199 202 198 202 204 203 201 203 211 214 219 222
199 191 179 173 180 180 173 172 177 178 186 181 185 196 184 176 177 174 174 174 172 174 180 181 179 182 182 183 185 202 219 214 206 206 208 206 203 204 202 206 207 218 221
189 186 175 168 182 179 173 174 179 184 187 182 188 200 191 179 176 177 176 176 176 181 186 180 176 178 184 165 139 205 297 252 230 224 210 204 207 204 198 202 200 198 209
193 186 168 169 179 187 179 170 173 175 186 178 180 195 193 180 177 181 181 180 181 179 183 183 172 175 184 171 158 155 236 293 264 233 212 206 211 206 207 204 198 198 199
184 174 172 179 181 181 168 155 162 164 165 169 179 189 192 179 176 181 184 182 184 182 186 189 183 183 188 194 181 171 175 215 249 264 226 215 208 209 214 202 202 201 198
109 133 148 160 163 165 163 161 171 183 176 185 182 185 188 180 177 180 183 186 187 187 188 191 189 189 183 192 198 205 197 176 183 231 253 225 214 217 216 207 202 202 197
75 118 131 139 145 155 156 163 175 182 162 152 154 177 188 179 179 181 181 185 189 190 191 190 191 192 192 196 195 189 197 209 204 199 236 231 230 229 221 210 202 201 195
52 71 87 114 121 141 151 158 169 166 158 152 161 191 188 181 179 184 182 184 191 194 194 194 194 196 199 200 205 199 189 190 199 199 224 232 236 237 227 218 209 199 195